Location: Dzierzno
(50.6159°N, 19.2852°E)
Time: 21:53:04
(UTC+00:00)

Aureole 3 Rocket - Pass Details

Date: 18 November 2025
Orbit: 397 x 1691 km, 82.5° (Epoch: 05 December)

Event Time Altitude Azimuth Distance (km) Brightness Sun altitude
Rises 16:56:00 0° 201° (SSW) 2,307 6.4 -19.2°
Reaches altitude 10° 16:57:58 10° 207° (SSW) 1,446 5.4 -19.5°
Maximum altitude 17:00:55 49° 284° (WNW) 545 3.1 -20.0°
Enters shadow 17:03:25 15° 357° (N) 1,287 4.6 -20.4°
